When you browse on this site, cookies collect data to enhance your experience and personalize the content and advertising you see.
Visit our Privacy Policy to learn more. By continuing to use the site, you agree to this use of cookies and data.
  • In France
  • List of Countries
  • For 7 days
  • Water Temperature
  • Weather Map
  • Weather Widgets
  • user-avatar
    Login

    Hourly Weather Samroung

    Today, 7 April, Tuesday

    Time Temperature Precipitation Wind Pressure Humidity
    00:00 +28°C° 0 mm 1 mps 756 mmHg 85%
    01:00 +28°C° 0 mm 1 mps 756 mmHg 83%
    02:00 +27°C° 0 mm 1 mps 756 mmHg 83%
    03:00 +27°C° 0 mm 1 mps 756 mmHg 84%
    04:00 +27°C° 0 mm 1 mps 755 mmHg 84%
    05:00 +28°C° 0.1 mm 1 mps 756 mmHg 83%
    06:00 +28°C° 0.1 mm 1 mps 756 mmHg 81%
    07:00 +30°C° 0 mm 1 mps 757 mmHg 78%
    08:00 +31°C° 0.2 mm 1 mps 757 mmHg 73%
    09:00 +33°C° 0.2 mm 1 mps 757 mmHg 67%
    10:00 +35°C° 0.2 mm 2 mps 758 mmHg 61%
    11:00 +35°C° 0.6 mm 2 mps 757 mmHg 62%
    12:00 +35°C° 0.6 mm 2 mps 756 mmHg 63%
    13:00 +35°C° 0.6 mm 2 mps 755 mmHg 64%
    14:00 +35°C° 0.2 mm 2 mps 755 mmHg 65%
    15:00 +34°C° 0.2 mm 3 mps 754 mmHg 67%
    16:00 +34°C° 0.2 mm 3 mps 753 mmHg 69%
    17:00 +32°C° 0.2 mm 2 mps 754 mmHg 74%
    18:00 +30°C° 0.2 mm 2 mps 754 mmHg 79%
    19:00 +29°C° 0.2 mm 2 mps 754 mmHg 85%
    20:00 +29°C° 0.3 mm 1 mps 755 mmHg 86%
    21:00 +28°C° 0.3 mm 1 mps 756 mmHg 87%
    22:00 +28°C° 0.3 mm 1 mps 757 mmHg 88%
    23:00 +28°C° 0.5 mm 1 mps 756 mmHg 89%

    Tomorrow, 8 April, Wednesday

    Time Temperature Precipitation Wind Pressure Humidity
    00:00 +27°C° 0.5 mm 1 mps 756 mmHg 90%
    01:00 +27°C° 0.5 mm 1 mps 756 mmHg 92%
    02:00 +27°C° 0 mm 1 mps 756 mmHg 91%
    03:00 +27°C° 0 mm 1 mps 755 mmHg 91%
    04:00 +27°C° 0 mm 1 mps 755 mmHg 91%
    05:00 +27°C° 0.1 mm 1 mps 756 mmHg 89%
    06:00 +27°C° 0.1 mm 1 mps 756 mmHg 88%
    07:00 +28°C° 0.1 mm 1 mps 756 mmHg 87%
    08:00 +30°C° 0.3 mm 1 mps 757 mmHg 78%
    09:00 +32°C° 0.3 mm 1 mps 757 mmHg 70%
    10:00 +35°C° 0.3 mm 1 mps 757 mmHg 62%
    11:00 +35°C° 1.3 mm 2 mps 757 mmHg 64%
    12:00 +35°C° 1.3 mm 2 mps 756 mmHg 66%
    13:00 +35°C° 1.3 mm 2 mps 756 mmHg 68%
    14:00 +34°C° 2.2 mm 2 mps 755 mmHg 71%
    15:00 +32°C° 2.2 mm 2 mps 755 mmHg 74%
    16:00 +32°C° 2.2 mm 2 mps 754 mmHg 77%
    17:00 +31°C° 0.6 mm 2 mps 754 mmHg 81%
    18:00 +30°C° 0.6 mm 2 mps 755 mmHg 85%
    19:00 +29°C° 0.6 mm 2 mps 755 mmHg 89%
    20:00 +28°C° 1.2 mm 1 mps 756 mmHg 89%
    21:00 +28°C° 1.2 mm 1 mps 756 mmHg 90%
    22:00 +28°C° 1.2 mm 1 mps 757 mmHg 90%
    23:00 +28°C° 0.2 mm 1 mps 757 mmHg 90%

    Day after tomorrow, 9 April, Thursday

    Time Temperature Precipitation Wind Pressure Humidity
    00:00 +28°C° 0.2 mm 1 mps 757 mmHg 91%
    01:00 +27°C° 0.2 mm 1 mps 756 mmHg 91%
    02:00 +27°C° 0.3 mm 1 mps 756 mmHg 91%
    03:00 +27°C° 0.3 mm 1 mps 756 mmHg 91%
    04:00 +27°C° 0.3 mm 1 mps 755 mmHg 92%
    05:00 +27°C° 0.1 mm 1 mps 756 mmHg 90%
    06:00 +27°C° 0.1 mm 1 mps 757 mmHg 89%
    07:00 +28°C° 0.1 mm 1 mps 757 mmHg 87%
    08:00 +30°C° 0.3 mm 1 mps 757 mmHg 80%
    09:00 +31°C° 0.3 mm 2 mps 758 mmHg 73%
    10:00 +34°C° 0.3 mm 2 mps 758 mmHg 66%
    11:00 +34°C° 1.2 mm 2 mps 757 mmHg 67%
    12:00 +34°C° 1.2 mm 2 mps 757 mmHg 68%
    13:00 +34°C° 1.2 mm 1 mps 756 mmHg 69%
    14:00 +33°C° 1.6 mm 1 mps 756 mmHg 72%
    15:00 +32°C° 1.6 mm 2 mps 755 mmHg 75%
    16:00 +32°C° 1.6 mm 2 mps 755 mmHg 78%
    17:00 +31°C° 2.8 mm 2 mps 755 mmHg 82%
    18:00 +29°C° 2.8 mm 2 mps 756 mmHg 86%
    19:00 +28°C° 2.8 mm 2 mps 756 mmHg 89%
    20:00 +28°C° 0.5 mm 1 mps 757 mmHg 89%
    21:00 +28°C° 0.5 mm 1 mps 757 mmHg 89%
    22:00 +28°C° 0.5 mm 1 mps 758 mmHg 88%
    23:00 +27°C° 0.1 mm 1 mps 757 mmHg 88%

    10 April, Friday

    Time Temperature Precipitation Wind Pressure Humidity
    00:00 +27°C° 0.1 mm 1 mps 757 mmHg 89%
    01:00 +27°C° 0.1 mm 1 mps 757 mmHg 89%
    02:00 +27°C° 0.8 mm 2 mps 757 mmHg 89%
    03:00 +27°C° 0.8 mm 2 mps 757 mmHg 90%
    04:00 +27°C° 0.8 mm 2 mps 756 mmHg 90%
    05:00 +27°C° 0.2 mm 2 mps 757 mmHg 90%
    06:00 +27°C° 0.2 mm 2 mps 757 mmHg 90%
    07:00 +27°C° 0.2 mm 2 mps 758 mmHg 90%
    08:00 +29°C° 0 mm 2 mps 758 mmHg 83%
    09:00 +30°C° 0 mm 3 mps 758 mmHg 75%
    10:00 +31°C° 0 mm 3 mps 759 mmHg 67%
    11:00 +33°C° 0.1 mm 3 mps 758 mmHg 65%
    12:00 +34°C° 0.1 mm 2 mps 757 mmHg 62%
    13:00 +35°C° 0.1 mm 2 mps 757 mmHg 59%
    14:00 +35°C° 0.5 mm 2 mps 756 mmHg 60%
    15:00 +34°C° 0.5 mm 1 mps 756 mmHg 61%
    16:00 +34°C° 0.5 mm 1 mps 755 mmHg 62%
    17:00 +32°C° 0.2 mm 1 mps 755 mmHg 69%
    18:00 +30°C° 0.2 mm 2 mps 756 mmHg 77%
    19:00 +29°C° 0.2 mm 2 mps 756 mmHg 84%
    20:00 +28°C° 0.1 mm 2 mps 757 mmHg 85%
    21:00 +28°C° 0.1 mm 2 mps 757 mmHg 85%
    22:00 +28°C° 0.1 mm 1 mps 758 mmHg 85%
    23:00 +28°C° 0.1 mm 1 mps 757 mmHg 87%

    11 April, Saturday

    Time Temperature Precipitation Wind Pressure Humidity
    00:00 +28°C° 0.1 mm 1 mps 757 mmHg 89%
    01:00 +27°C° 0.1 mm 1 mps 757 mmHg 91%
    02:00 +27°C° 0.1 mm 1 mps 757 mmHg 91%
    03:00 +27°C° 0.1 mm 1 mps 757 mmHg 92%
    04:00 +27°C° 0.1 mm 1 mps 756 mmHg 92%
    05:00 +27°C° 0 mm 1 mps 757 mmHg 91%
    06:00 +28°C° 0 mm 1 mps 757 mmHg 89%
    07:00 +28°C° 0 mm 1 mps 758 mmHg 87%
    08:00 +30°C° 0 mm 1 mps 758 mmHg 77%
    09:00 +33°C° 0 mm 1 mps 758 mmHg 67%
    10:00 +35°C° 0 mm 1 mps 758 mmHg 57%
    11:00 +35°C° 0 mm 1 mps 757 mmHg 57%
    12:00 +36°C° 0 mm 2 mps 756 mmHg 56%
    13:00 +36°C° 0 mm 2 mps 756 mmHg 56%
    14:00 +36°C° 0.2 mm 2 mps 755 mmHg 58%
    15:00 +35°C° 0.2 mm 2 mps 755 mmHg 61%
    16:00 +35°C° 0.2 mm 2 mps 754 mmHg 64%
    17:00 +32°C° 0.5 mm 2 mps 754 mmHg 70%
    18:00 +31°C° 0.5 mm 1 mps 755 mmHg 77%
    19:00 +29°C° 0.5 mm 1 mps 755 mmHg 83%
    20:00 +29°C° 0.1 mm 1 mps 755 mmHg 85%
    21:00 +29°C° 0.1 mm 1 mps 756 mmHg 86%
    22:00 +28°C° 0.1 mm 1 mps 757 mmHg 88%
    23:00 +28°C° 0 mm 1 mps 756 mmHg 89%

    12 April, Sunday

    Time Temperature Precipitation Wind Pressure Humidity
    00:00 +28°C° 0 mm 1 mps 756 mmHg 91%
    01:00 +28°C° 0 mm 1 mps 756 mmHg 92%
    02:00 +28°C° 0.1 mm 1 mps 755 mmHg 93%
    03:00 +27°C° 0.1 mm 1 mps 755 mmHg 93%
    04:00 +27°C° 0.1 mm 1 mps 755 mmHg 93%
    05:00 +28°C° 0.1 mm 1 mps 755 mmHg 92%
    06:00 +28°C° 0.1 mm 2 mps 756 mmHg 91%
    07:00 +29°C° 0.1 mm 2 mps 756 mmHg 90%
    08:00 +30°C° 0.1 mm 2 mps 756 mmHg 83%
    09:00 +32°C° 0.1 mm 2 mps 757 mmHg 77%
    10:00 +34°C° 0.1 mm 2 mps 757 mmHg 70%
    11:00 +34°C° 0.5 mm 2 mps 756 mmHg 70%
    12:00 +35°C° 0.5 mm 2 mps 756 mmHg 69%
    13:00 +35°C° 0.5 mm 2 mps 755 mmHg 68%
    14:00 +34°C° 0.9 mm 2 mps 755 mmHg 70%
    15:00 +34°C° 0.9 mm 2 mps 754 mmHg 72%
    16:00 +34°C° 0.9 mm 2 mps 754 mmHg 74%
    17:00 +31°C° 1.7 mm 2 mps 754 mmHg 80%
    18:00 +30°C° 1.7 mm 2 mps 754 mmHg 86%
    19:00 +28°C° 1.7 mm 2 mps 754 mmHg 91%
    20:00 +28°C° 0.4 mm 2 mps 755 mmHg 92%
    21:00 +28°C° 0.4 mm 2 mps 755 mmHg 92%
    22:00 +27°C° 0.4 mm 2 mps 756 mmHg 93%
    23:00 +27°C° 0.5 mm 1 mps 756 mmHg 92%
    Show more